Time,TemperatureF,DewpointF,PressureIn,WindDirection,WindDirectionDegrees,WindSpeedMPH,WindSpeedGustMPH,Humidity,HourlyPrecipIn,Conditions,Clouds,dailyrainin,SolarRadiationWatts/m^2,SoftwareType,DateUTC
2013-03-04 00:00:00,22.8,16.1,30.09,NW,312,0.0,0.0,75,0.00,,,0.00,0,Wunderground v.1.15,2013-03-04 05:00:00,
2013-03-04 00:02:00,22.7,16.0,30.09,NW,312,0.0,2.0,75,0.00,,,0.00,0,Wunderground v.1.15,2013-03-04 05:02:00,
2013-03-04 00:04:00,22.7,16.0,30.09,NW,312,0.0,2.0,75,0.00,,,0.00,0,Wunderground v.1.15,2013-03-04 05:04:00,
2013-03-04 00:07:00,22.5,15.8,30.09,NW,312,0.0,2.0,75,0.00,,,0.00,0,Wunderground v.1.15,2013-03-04 05:07:00,
2013-03-04 00:13:00,22.3,15.9,30.09,NW,312,0.0,2.0,76,0.00,,,0.00,0,Wunderground v.1.15,2013-03-04 05:13:00,
2013-03-04 00:19:00,22.1,16.0,30.10,NW,312,0.0,2.0,77,0.00,,,0.00,0,Wunderground v.1.15,2013-03-04 05:19:00,
2013-03-04 00:24:00,21.9,15.8,30.10,NW,311,0.0,2.0,77,0.00,,,0.00,0,Wunderground v.1.15,2013-03-04 05:24:00,
2013-03-04 00:30:00,21.7,15.9,30.10,NW,312,0.0,2.0,78,0.00,,,0.00,0,Wunderground v.1.15,2013-03-04 05:30:00,
2013-03-04 00:36:00,21.6,16.0,30.09,NW,311,0.0,-999.0,78,-99.99,,,0.00,,weatherlink.com 1.10,2013-03-04 05:36:00,
2013-03-04 00:41:00,21.5,15.7,30.10,NW,312,0.0,2.0,78,0.00,,,0.00,0,Wunderground v.1.15,2013-03-04 05:41:00,
2013-03-04 00:46:00,21.5,15.7,30.10,NW,312,0.0,2.0,78,0.00,,,0.00,0,Wunderground v.1.15,2013-03-04 05:46:00,
2013-03-04 00:52:00,21.5,16.0,30.10,NW,311,0.0,2.0,79,0.00,,,0.00,0,Wunderground v.1.15,2013-03-04 05:52:00,
2013-03-04 00:57:00,21.6,15.8,30.10,NW,312,0.0,2.0,78,0.00,,,0.00,0,Wunderground v.1.15,2013-03-04 05:57:00,
2013-03-04 01:03:00,21.6,15.8,30.10,NW,311,0.0,0.0,78,0.00,,,0.00,0,Wunderground v.1.15,2013-03-04 06:03:00,
2013-03-04 01:08:00,21.5,16.0,30.11,NW,311,0.0,0.0,79,0.00,,,0.00,0,Wunderground v.1.15,2013-03-04 06:08:00,
2013-03-04 01:15:00,21.3,15.8,30.11,NW,311,0.0,0.0,79,0.00,,,0.00,0,Wunderground v.1.15,2013-03-04 06:15:00,
2013-03-04 01:21:00,21.2,15.4,30.11,NW,311,0.0,2.0,78,0.00,,,0.00,0,Wunderground v.1.15,2013-03-04 06:21:00,
2013-03-04 01:27:00,21.2,15.7,30.11,NW,312,0.0,2.0,79,0.00,,,0.00,0,Wunderground v.1.15,2013-03-04 06:27:00,
2013-03-04 01:33:00,20.9,15.4,30.11,NW,311,0.0,2.0,79,0.00,,,0.00,0,Wunderground v.1.15,2013-03-04 06:33:00,
2013-03-04 01:39:00,20.7,15.5,30.11,NW,312,0.0,2.0,80,0.00,,,0.00,0,Wunderground v.1.15,2013-03-04 06:39:00,
2013-03-04 01:45:00,20.7,15.5,30.10,NW,312,0.0,1.0,80,0.00,,,0.00,0,Wunderground v.1.15,2013-03-04 06:45:00,
2013-03-04 01:51:00,20.7,15.5,30.10,NW,312,0.0,0.0,80,0.00,,,0.00,0,Wunderground v.1.15,2013-03-04 06:51:00,
2013-03-04 01:56:00,20.7,15.5,30.10,NW,312,0.0,0.0,80,0.00,,,0.00,0,Wunderground v.1.15,2013-03-04 06:56:00,
2013-03-04 02:01:00,20.7,15.5,30.10,NW,311,0.0,2.0,80,0.00,,,0.00,0,Wunderground v.1.15,2013-03-04 07:01:00,
2013-03-04 02:07:00,20.6,15.4,30.10,NW,311,0.0,2.0,80,0.00,,,0.00,0,Wunderground v.1.15,2013-03-04 07:07:00,
2013-03-04 02:13:00,20.5,15.3,30.10,NW,312,0.0,2.0,80,0.00,,,0.00,0,Wunderground v.1.15,2013-03-04 07:13:00,
2013-03-04 02:19:00,20.2,15.3,30.10,NW,312,0.0,2.0,81,0.00,,,0.00,0,Wunderground v.1.15,2013-03-04 07:19:00,
2013-03-04 02:25:00,19.9,15.0,30.10,NW,312,0.0,2.0,81,0.00,,,0.00,0,Wunderground v.1.15,2013-03-04 07:25:00,
2013-03-04 02:31:00,19.8,14.9,30.10,NW,312,0.0,2.0,81,0.00,,,0.00,0,Wunderground v.1.15,2013-03-04 07:31:00,
2013-03-04 02:36:00,19.7,15.0,30.10,NW,312,0.0,-999.0,82,-99.99,,,0.00,,weatherlink.com 1.10,2013-03-04 07:36:00,
2013-03-04 02:41:00,19.6,15.0,30.10,NW,311,0.0,2.0,82,0.00,,,0.00,0,Wunderground v.1.15,2013-03-04 07:41:00,
2013-03-04 02:46:00,19.7,15.1,30.10,WSW,242,0.0,2.0,82,0.00,,,0.00,0,Wunderground v.1.15,2013-03-04 07:46:00,
2013-03-04 02:52:00,19.8,15.2,30.10,WSW,242,1.0,2.0,82,0.00,,,0.00,0,Wunderground v.1.15,2013-03-04 07:52:00,
2013-03-04 02:58:00,19.8,15.2,30.11,WSW,241,1.0,2.0,82,0.00,,,0.00,0,Wunderground v.1.15,2013-03-04 07:58:00,
2013-03-04 03:04:00,19.8,15.2,30.11,WSW,242,1.0,2.0,82,0.00,,,0.00,0,Wunderground v.1.15,2013-03-04 08:04:00,
2013-03-04 03:10:00,20.0,15.4,30.11,WSW,241,2.0,2.0,82,0.00,,,0.00,0,Wunderground v.1.15,2013-03-04 08:10:00,
2013-03-04 03:16:00,20.0,15.4,30.11,WSW,244,2.0,2.0,82,0.00,,,0.00,0,Wunderground v.1.15,2013-03-04 08:16:00,
2013-03-04 03:22:00,19.9,15.3,30.11,WSW,244,1.0,2.0,82,0.00,,,0.00,0,Wunderground v.1.15,2013-03-04 08:22:00,
2013-03-04 03:27:00,19.8,15.2,30.11,WSW,244,0.0,2.0,82,0.00,,,0.00,0,Wunderground v.1.15,2013-03-04 08:27:00,
2013-03-04 03:32:00,19.6,15.3,30.11,WSW,244,0.0,0.0,83,0.00,,,0.00,0,Wunderground v.1.15,2013-03-04 08:32:00,
2013-03-04 03:37:00,19.4,15.1,30.11,WSW,244,0.0,0.0,83,0.00,,,0.00,0,Wunderground v.1.15,2013-03-04 08:37:00,
2013-03-04 03:43:00,19.6,15.3,30.11,WSW,244,0.0,2.0,83,0.00,,,0.00,0,Wunderground v.1.15,2013-03-04 08:43:00,
2013-03-04 03:49:00,19.6,15.3,30.12,WSW,244,1.0,2.0,83,0.00,,,0.00,0,Wunderground v.1.15,2013-03-04 08:49:00,
2013-03-04 03:54:00,19.5,15.2,30.12,West,263,2.0,3.0,83,0.00,,,0.00,0,Wunderground v.1.15,2013-03-04 08:54:00,
2013-03-04 03:59:00,19.6,15.3,30.12,WSW,246,2.0,3.0,83,0.00,,,0.00,0,Wunderground v.1.15,2013-03-04 08:59:00,
2013-03-04 04:04:00,19.5,15.2,30.11,WSW,245,2.0,4.0,83,0.00,,,0.00,0,Wunderground v.1.15,2013-03-04 09:04:00,
2013-03-04 04:10:00,19.5,15.2,30.11,WSW,245,2.0,2.0,83,0.00,,,0.00,0,Wunderground v.1.15,2013-03-04 09:10:00,
2013-03-04 04:15:00,19.4,15.1,30.12,SW,220,2.0,4.0,83,0.00,,,0.00,0,Wunderground v.1.15,2013-03-04 09:15:00,
2013-03-04 04:21:00,19.4,15.1,30.12,WSW,237,2.0,4.0,83,0.00,,,0.00,0,Wunderground v.1.15,2013-03-04 09:21:00,
2013-03-04 04:27:00,19.4,15.1,30.12,WSW,241,2.0,4.0,83,0.00,,,0.00,0,Wunderground v.1.15,2013-03-04 09:27:00,
2013-03-04 04:32:00,19.4,15.1,30.12,WSW,246,2.0,4.0,83,0.00,,,0.00,0,Wunderground v.1.15,2013-03-04 09:32:00,
2013-03-04 04:37:00,19.4,15.1,30.12,WSW,248,2.0,4.0,83,0.00,,,0.00,0,Wunderground v.1.15,2013-03-04 09:37:00,
2013-03-04 04:42:00,19.4,15.1,30.12,WSW,248,1.0,4.0,83,0.00,,,0.00,0,Wunderground v.1.15,2013-03-04 09:42:00,
2013-03-04 04:48:00,19.3,15.0,30.13,WSW,248,0.0,4.0,83,0.00,,,0.00,0,Wunderground v.1.15,2013-03-04 09:48:00,
2013-03-04 04:54:00,19.2,14.9,30.13,WSW,248,0.0,4.0,83,0.00,,,0.00,0,Wunderground v.1.15,2013-03-04 09:54:00,
2013-03-04 05:00:00,19.0,14.7,30.13,WSW,248,0.0,0.0,83,0.00,,,0.00,0,Wunderground v.1.15,2013-03-04 10:00:00,
2013-03-04 05:06:00,18.9,14.9,30.13,WSW,248,0.0,5.0,84,0.00,,,0.00,0,Wunderground v.1.15,2013-03-04 10:06:00,
2013-03-04 05:11:00,18.8,14.8,30.13,WSW,248,0.0,5.0,84,0.00,,,0.00,0,Wunderground v.1.15,2013-03-04 10:11:00,
2013-03-04 05:17:00,18.6,14.8,30.13,WSW,248,0.0,5.0,85,0.00,,,0.00,0,Wunderground v.1.15,2013-03-04 10:17:00,
2013-03-04 05:23:00,18.4,14.9,30.13,WSW,248,0.0,5.0,86,0.00,,,0.00,0,Wunderground v.1.15,2013-03-04 10:23:00,
2013-03-04 05:29:00,18.2,14.7,30.13,WSW,248,0.0,5.0,86,0.00,,,0.00,0,Wunderground v.1.15,2013-03-04 10:29:00,
2013-03-04 05:34:00,18.1,14.6,30.13,WSW,248,0.0,5.0,86,0.00,,,0.00,0,Wunderground v.1.15,2013-03-04 10:34:00,
2013-03-04 05:39:00,18.1,14.6,30.14,WSW,248,0.0,5.0,86,0.00,,,0.00,0,Wunderground v.1.15,2013-03-04 10:39:00,
2013-03-04 05:45:00,18.0,14.5,30.14,WSW,248,0.0,5.0,86,0.00,,,0.00,0,Wunderground v.1.15,2013-03-04 10:45:00,
2013-03-04 05:50:00,17.9,14.4,30.14,WSW,248,0.0,5.0,86,0.00,,,0.00,0,Wunderground v.1.15,2013-03-04 10:50:00,
2013-03-04 05:56:00,17.8,14.3,30.14,WSW,248,0.0,5.0,86,0.00,,,0.00,0,Wunderground v.1.15,2013-03-04 10:56:00,
2013-03-04 06:01:00,17.7,14.2,30.14,WSW,248,0.0,0.0,86,0.00,,,0.00,0,Wunderground v.1.15,2013-03-04 11:01:00,
2013-03-04 06:06:00,17.7,14.5,30.14,WSW,248,0.0,0.0,87,0.00,,,0.00,0,Wunderground v.1.15,2013-03-04 11:06:00,
2013-03-04 06:12:00,17.6,14.4,30.14,WSW,248,0.0,0.0,87,0.00,,,0.00,0,Wunderground v.1.15,2013-03-04 11:12:00,
2013-03-04 06:17:00,17.6,14.4,30.15,WSW,248,0.0,1.0,87,0.00,,,0.00,0,Wunderground v.1.15,2013-03-04 11:17:00,
2013-03-04 06:23:00,17.8,14.6,30.15,WSW,248,0.0,0.0,87,0.00,,,0.00,0,Wunderground v.1.15,2013-03-04 11:23:00,
2013-03-04 06:29:00,18.0,14.8,30.15,WSW,248,0.0,0.0,87,0.00,,,0.00,0,Wunderground v.1.15,2013-03-04 11:29:00,
2013-03-04 06:35:00,18.1,15.0,30.15,WSW,248,0.0,-999.0,86,-99.99,,,0.00,,weatherlink.com 1.10,2013-03-04 11:35:00,
2013-03-04 06:40:00,18.1,14.6,30.15,WSW,248,0.0,0.0,86,0.00,,,0.00,0,Wunderground v.1.15,2013-03-04 11:40:00,
2013-03-04 06:45:00,18.1,14.6,30.15,WSW,248,0.0,0.0,86,0.00,,,0.00,0,Wunderground v.1.15,2013-03-04 11:45:00,
2013-03-04 06:51:00,18.0,15.0,30.15,WSW,248,0.0,-999.0,87,-99.99,,,0.00,,weatherlink.com 1.10,2013-03-04 11:51:00,
2013-03-04 06:56:00,17.9,14.9,30.14,WSW,248,0.0,0.0,88,0.00,,,0.00,0,Wunderground v.1.15,2013-03-04 11:56:00,
2013-03-04 07:02:00,18.0,15.0,30.15,WSW,248,0.0,2.0,88,0.00,,,0.00,0,Wunderground v.1.15,2013-03-04 12:02:00,
2013-03-04 07:07:00,18.0,15.0,30.15,WSW,248,0.0,2.0,88,0.00,,,0.00,5,Wunderground v.1.15,2013-03-04 12:07:00,
2013-03-04 07:13:00,18.0,15.0,30.15,WSW,248,0.0,2.0,88,0.00,,,0.00,9,Wunderground v.1.15,2013-03-04 12:13:00,
2013-03-04 07:19:00,17.9,15.2,30.15,WSW,248,0.0,2.0,89,0.00,,,0.00,12,Wunderground v.1.15,2013-03-04 12:19:00,
2013-03-04 07:24:00,18.1,15.1,30.15,WSW,248,0.0,2.0,88,0.00,,,0.00,16,Wunderground v.1.15,2013-03-04 12:24:00,
2013-03-04 07:30:00,18.1,15.1,30.15,WSW,248,0.0,2.0,88,0.00,,,0.00,19,Wunderground v.1.15,2013-03-04 12:30:00,
2013-03-04 07:36:00,18.1,15.1,30.16,WSW,248,0.0,2.0,88,0.00,,,0.00,23,Wunderground v.1.15,2013-03-04 12:36:00,
2013-03-04 07:42:00,18.2,15.2,30.16,WSW,248,0.0,2.0,88,0.00,,,0.00,26,Wunderground v.1.15,2013-03-04 12:42:00,
2013-03-04 07:48:00,18.4,15.4,30.15,WSW,248,0.0,2.0,88,0.00,,,0.00,28,Wunderground v.1.15,2013-03-04 12:48:00,
2013-03-04 07:54:00,18.6,15.6,30.15,WSW,248,0.0,2.0,88,0.00,,,0.00,32,Wunderground v.1.15,2013-03-04 12:54:00,
2013-03-04 07:59:00,19.0,16.0,30.16,WSW,248,0.0,2.0,88,0.00,,,0.00,35,Wunderground v.1.15,2013-03-04 12:59:00,
2013-03-04 08:05:00,19.5,19.0,30.16,WSW,248,0.0,-999.0,96,-99.99,,,0.00,,weatherlink.com 1.10,2013-03-04 13:05:00,
2013-03-04 08:10:00,19.8,16.6,30.15,WSW,248,0.0,0.0,87,0.00,,,0.00,42,Wunderground v.1.15,2013-03-04 13:10:00,
2013-03-04 08:16:00,20.3,16.8,30.16,WSW,248,0.0,0.0,86,0.00,,,0.00,49,Wunderground v.1.15,2013-03-04 13:16:00,
2013-03-04 08:22:00,20.7,16.9,30.16,WSW,248,0.0,1.0,85,0.00,,,0.00,58,Wunderground v.1.15,2013-03-04 13:22:00,
2013-03-04 08:27:00,21.0,17.2,30.16,WSW,248,0.0,1.0,85,0.00,,,0.00,65,Wunderground v.1.15,2013-03-04 13:27:00,
2013-03-04 08:33:00,21.4,17.0,30.16,North,355,0.0,0.0,83,0.00,,,0.00,76,Wunderground v.1.15,2013-03-04 13:33:00,
2013-03-04 08:39:00,21.8,17.4,30.16,North,355,0.0,0.0,83,0.00,,,0.00,90,Wunderground v.1.15,2013-03-04 13:39:00,
2013-03-04 08:45:00,22.1,17.4,30.17,North,355,0.0,0.0,82,0.00,,,0.00,111,Wunderground v.1.15,2013-03-04 13:45:00,
2013-03-04 08:50:00,22.4,18.0,30.16,North,355,0.0,-999.0,82,-99.99,,,0.00,,weatherlink.com 1.10,2013-03-04 13:50:00,
2013-03-04 08:56:00,22.8,17.8,30.16,North,355,0.0,0.0,81,0.00,,,0.00,301,Wunderground v.1.15,2013-03-04 13:56:00,
2013-03-04 09:01:00,23.1,17.8,30.16,North,355,0.0,2.0,80,0.00,,,0.00,283,Wunderground v.1.15,2013-03-04 14:01:00,
2013-03-04 09:07:00,23.4,17.8,30.16,North,355,0.0,2.0,79,0.00,,,0.00,265,Wunderground v.1.15,2013-03-04 14:07:00,
2013-03-04 09:13:00,23.8,18.2,30.16,West,275,0.0,3.0,79,0.00,,,0.00,250,Wunderground v.1.15,2013-03-04 14:13:00,
2013-03-04 09:19:00,23.9,18.3,30.16,West,275,0.0,3.0,79,0.00,,,0.00,269,Wunderground v.1.15,2013-03-04 14:19:00,
2013-03-04 09:25:00,24.2,18.3,30.16,West,275,0.0,2.0,78,0.00,,,0.00,301,Wunderground v.1.15,2013-03-04 14:25:00,
2013-03-04 09:31:00,24.5,18.6,30.16,WNW,295,1.0,2.0,78,0.00,,,0.00,279,Wunderground v.1.15,2013-03-04 14:31:00,
2013-03-04 09:36:00,24.8,18.9,30.16,North,355,1.0,2.0,78,0.00,,,0.00,329,Wunderground v.1.15,2013-03-04 14:36:00,
2013-03-04 09:42:00,25.1,18.9,30.16,NW,305,0.0,2.0,77,0.00,,,0.00,380,Wunderground v.1.15,2013-03-04 14:42:00,
2013-03-04 09:48:00,25.6,18.8,30.16,West,278,1.0,2.0,75,0.00,,,0.00,385,Wunderground v.1.15,2013-03-04 14:48:00,
2013-03-04 09:53:00,25.7,18.6,30.15,West,272,1.0,3.0,74,0.00,,,0.00,392,Wunderground v.1.15,2013-03-04 14:53:00,
2013-03-04 09:59:00,25.4,17.9,30.15,WNW,298,2.0,5.0,73,0.00,,,0.00,353,Wunderground v.1.15,2013-03-04 14:59:00,
2013-03-04 10:05:00,25.6,18.0,30.16,WSW,239,0.0,-999.0,74,-99.99,,,0.00,,weatherlink.com 1.10,2013-03-04 15:05:00,
2013-03-04 10:10:00,25.8,18.3,30.15,West,268,0.0,4.0,73,0.00,,,0.00,374,Wunderground v.1.15,2013-03-04 15:10:00,
2013-03-04 10:16:00,26.1,18.3,30.15,NW,311,0.0,4.0,72,0.00,,,0.00,404,Wunderground v.1.15,2013-03-04 15:16:00,
2013-03-04 10:22:00,26.3,19.0,30.15,WSW,248,0.0,-999.0,73,-99.99,,,0.00,,weatherlink.com 1.10,2013-03-04 15:22:00,
2013-03-04 10:27:00,26.4,18.9,30.15,NNW,327,1.0,4.0,73,0.00,,,0.00,438,Wunderground v.1.15,2013-03-04 15:27:00,
2013-03-04 10:33:00,26.6,19.1,30.15,SW,235,1.0,4.0,73,0.00,,,0.00,441,Wunderground v.1.15,2013-03-04 15:33:00,
2013-03-04 10:39:00,26.8,18.7,30.15,West,275,0.0,4.0,71,0.00,,,0.00,438,Wunderground v.1.15,2013-03-04 15:39:00,
2013-03-04 10:45:00,27.2,19.0,30.15,SSE,150,0.0,4.0,71,0.00,,,0.00,524,Wunderground v.1.15,2013-03-04 15:45:00,
2013-03-04 10:51:00,27.5,19.3,30.15,West,261,1.0,4.0,71,0.00,,,0.00,566,Wunderground v.1.15,2013-03-04 15:51:00,
2013-03-04 10:56:00,27.3,19.5,30.15,SW,225,1.0,4.0,72,0.00,,,0.00,434,Wunderground v.1.15,2013-03-04 15:56:00,
2013-03-04 11:02:00,27.5,19.3,30.15,SW,225,0.0,5.0,71,0.00,,,0.00,578,Wunderground v.1.15,2013-03-04 16:02:00,
2013-03-04 11:08:00,27.7,18.8,30.15,SW,225,1.0,5.0,69,0.00,,,0.00,606,Wunderground v.1.15,2013-03-04 16:08:00,
2013-03-04 11:14:00,28.1,19.9,30.15,SW,225,1.0,5.0,71,0.00,,,0.00,626,Wunderground v.1.15,2013-03-04 16:14:00,
2013-03-04 11:19:00,28.3,18.7,30.15,SW,226,0.0,5.0,67,0.00,,,0.00,631,Wunderground v.1.15,2013-03-04 16:19:00,
2013-03-04 11:25:00,28.5,19.6,30.14,WSW,257,0.0,5.0,69,0.00,,,0.00,675,Wunderground v.1.15,2013-03-04 16:25:00,
2013-03-04 11:31:00,28.9,20.0,30.14,NNE,15,0.0,5.0,69,0.00,,,0.00,659,Wunderground v.1.15,2013-03-04 16:31:00,
2013-03-04 11:37:00,29.1,19.5,30.14,NE,49,1.0,5.0,67,0.00,,,0.00,536,Wunderground v.1.15,2013-03-04 16:37:00,
2013-03-04 11:43:00,28.8,18.5,30.14,NE,49,1.0,5.0,65,0.00,,,0.00,552,Wunderground v.1.15,2013-03-04 16:43:00,
2013-03-04 11:48:00,29.1,19.2,30.14,NE,49,0.0,5.0,66,0.00,,,0.00,622,Wunderground v.1.15,2013-03-04 16:48:00,
2013-03-04 11:54:00,29.5,19.5,30.14,NE,48,0.0,5.0,66,0.00,,,0.00,686,Wunderground v.1.15,2013-03-04 16:54:00,
2013-03-04 12:00:00,30.0,18.9,30.13,East,88,0.0,0.0,63,0.00,,,0.00,708,Wunderground v.1.15,2013-03-04 17:00:00,
2013-03-04 12:06:00,30.0,19.0,30.13,East,87,0.0,-999.0,64,-99.99,,,0.00,,weatherlink.com 1.10,2013-03-04 17:06:00,
2013-03-04 12:11:00,30.3,19.2,30.13,East,87,0.0,4.0,63,0.00,,,0.00,740,Wunderground v.1.15,2013-03-04 17:11:00,
2013-03-04 12:17:00,30.7,18.8,30.13,East,86,0.0,4.0,61,0.00,,,0.00,603,Wunderground v.1.15,2013-03-04 17:17:00,
2013-03-04 12:23:00,31.4,19.5,30.13,ESE,122,0.0,4.0,61,0.00,,,0.00,571,Wunderground v.1.15,2013-03-04 17:23:00,
2013-03-04 12:29:00,31.7,19.0,30.12,ENE,69,0.0,4.0,59,0.00,,,0.00,663,Wunderground v.1.15,2013-03-04 17:29:00,
2013-03-04 12:35:00,31.7,19.0,30.12,ENE,69,0.0,-999.0,59,-99.99,,,0.00,,weatherlink.com 1.10,2013-03-04 17:35:00,
2013-03-04 12:40:00,32.2,20.2,30.12,ESE,106,0.0,4.0,61,0.00,,,0.00,617,Wunderground v.1.15,2013-03-04 17:40:00,
2013-03-04 12:45:00,32.8,20.0,30.12,ESE,115,0.0,4.0,59,0.00,,,0.00,598,Wunderground v.1.15,2013-03-04 17:45:00,
2013-03-04 12:51:00,33.3,19.7,30.11,ENE,76,0.0,8.0,57,0.00,,,0.00,608,Wunderground v.1.15,2013-03-04 17:51:00,
2013-03-04 12:56:00,32.7,19.1,30.11,ENE,78,2.0,8.0,57,0.00,,,0.00,633,Wunderground v.1.15,2013-03-04 17:56:00,
2013-03-04 13:02:00,32.8,18.0,30.11,East,81,1.0,3.0,54,0.00,,,0.00,608,Wunderground v.1.15,2013-03-04 18:02:00,
2013-03-04 13:08:00,32.5,18.1,30.11,ENE,71,1.0,3.0,55,0.00,,,0.00,612,Wunderground v.1.15,2013-03-04 18:08:00,
2013-03-04 13:14:00,32.3,17.5,30.11,NNE,22,1.0,4.0,54,0.00,,,0.00,612,Wunderground v.1.15,2013-03-04 18:14:00,
2013-03-04 13:20:00,32.9,19.0,30.10,East,98,0.0,-999.0,58,-99.99,,,0.00,,weatherlink.com 1.10,2013-03-04 18:20:00,
2013-03-04 13:26:00,34.3,21.0,30.10,East,95,0.0,3.0,58,0.00,,,0.00,633,Wunderground v.1.15,2013-03-04 18:26:00,
2013-03-04 13:30:00,34.6,20.9,30.10,SE,127,1.0,1.0,57,0.00,,,0.00,594,Wunderground v.1.15,2013-03-04 18:30:00,
2013-03-04 13:31:00,34.7,21.4,30.10,ESE,105,1.0,3.0,58,0.00,,,0.00,580,Wunderground v.1.15,2013-03-04 18:31:00,
2013-03-04 13:32:00,34.7,21.4,30.10,SE,126,1.0,3.0,58,0.00,,,0.00,577,Wunderground v.1.15,2013-03-04 18:32:00,
2013-03-04 13:33:00,34.7,20.6,30.10,SE,125,1.0,3.0,56,0.00,,,0.00,594,Wunderground v.1.15,2013-03-04 18:33:00,
2013-03-04 13:38:00,34.3,20.2,30.10,East,83,1.0,3.0,56,0.00,,,0.00,531,Wunderground v.1.15,2013-03-04 18:38:00,
2013-03-04 13:43:00,33.5,19.9,30.10,East,82,1.0,3.0,57,0.00,,,0.00,582,Wunderground v.1.15,2013-03-04 18:43:00,
2013-03-04 13:49:00,33.3,19.7,30.09,ENE,74,1.0,3.0,57,0.00,,,0.00,496,Wunderground v.1.15,2013-03-04 18:49:00,
2013-03-04 13:54:00,33.6,19.1,30.09,ESE,105,1.0,3.0,55,0.00,,,0.00,434,Wunderground v.1.15,2013-03-04 18:54:00,
2013-03-04 14:00:00,34.4,19.5,30.09,East,95,0.0,0.0,54,0.00,,,0.00,487,Wunderground v.1.15,2013-03-04 19:00:00,
2013-03-04 14:06:00,34.9,19.9,30.09,SSW,195,0.0,6.0,54,0.00,,,0.00,461,Wunderground v.1.15,2013-03-04 19:06:00,
2013-03-04 14:11:00,35.0,20.0,30.09,East,86,1.0,6.0,54,0.00,,,0.00,475,Wunderground v.1.15,2013-03-04 19:11:00,
2013-03-04 14:17:00,34.6,19.2,30.08,NE,36,2.0,6.0,53,0.00,,,0.00,422,Wunderground v.1.15,2013-03-04 19:17:00,
2013-03-04 14:23:00,33.9,19.8,30.08,ENE,58,2.0,6.0,56,0.00,,,0.00,411,Wunderground v.1.15,2013-03-04 19:23:00,
2013-03-04 14:28:00,34.2,20.5,30.08,East,96,2.0,6.0,57,0.00,,,0.00,338,Wunderground v.1.15,2013-03-04 19:28:00,
2013-03-04 14:33:00,35.0,20.4,30.08,SSE,157,2.0,6.0,55,0.00,,,0.00,315,Wunderground v.1.15,2013-03-04 19:33:00,
2013-03-04 14:39:00,35.0,19.1,30.08,ESE,123,2.0,6.0,52,0.00,,,0.00,294,Wunderground v.1.15,2013-03-04 19:39:00,
2013-03-04 14:45:00,35.0,20.9,30.08,East,79,1.0,6.0,56,0.00,,,0.00,276,Wunderground v.1.15,2013-03-04 19:45:00,
2013-03-04 14:51:00,34.9,20.0,30.08,East,90,0.0,-999.0,54,-99.99,,,0.00,,weatherlink.com 1.10,2013-03-04 19:51:00,
2013-03-04 14:56:00,34.7,19.3,30.08,East,88,1.0,6.0,53,0.00,,,0.00,279,Wunderground v.1.15,2013-03-04 19:56:00,
2013-03-04 15:01:00,34.6,20.5,30.08,ENE,64,1.0,7.0,56,0.00,,,0.00,290,Wunderground v.1.15,2013-03-04 20:01:00,
2013-03-04 15:07:00,34.6,20.1,30.07,SSE,159,1.0,7.0,55,0.00,,,0.00,301,Wunderground v.1.15,2013-03-04 20:07:00,
2013-03-04 15:13:00,34.9,20.4,30.07,SE,128,1.0,7.0,55,0.00,,,0.00,297,Wunderground v.1.15,2013-03-04 20:13:00,
2013-03-04 15:18:00,34.7,20.6,30.07,East,91,1.0,7.0,56,0.00,,,0.00,341,Wunderground v.1.15,2013-03-04 20:18:00,
2013-03-04 15:23:00,34.7,20.6,30.07,ESE,105,1.0,7.0,56,0.00,,,0.00,364,Wunderground v.1.15,2013-03-04 20:23:00,
2013-03-04 15:29:00,35.2,21.1,30.07,ENE,69,1.0,7.0,56,0.00,,,0.00,403,Wunderground v.1.15,2013-03-04 20:29:00,
2013-03-04 15:35:00,35.6,21.0,30.07,East,84,0.0,-999.0,55,-99.99,,,0.00,,weatherlink.com 1.10,2013-03-04 20:35:00,
2013-03-04 15:41:00,35.8,20.8,30.07,East,96,0.0,7.0,54,0.00,,,0.00,392,Wunderground v.1.15,2013-03-04 20:41:00,
2013-03-04 15:46:00,35.1,20.5,30.07,ESE,103,1.0,7.0,55,0.00,,,0.00,362,Wunderground v.1.15,2013-03-04 20:46:00,
2013-03-04 15:52:00,34.7,20.2,30.07,ENE,71,3.0,7.0,55,0.00,,,0.00,334,Wunderground v.1.15,2013-03-04 20:52:00,
2013-03-04 15:58:00,35.0,19.6,30.07,SSE,151,3.0,7.0,53,0.00,,,0.00,302,Wunderground v.1.15,2013-03-04 20:58:00,
2013-03-04 16:04:00,35.3,21.2,30.07,NE,52,1.0,6.0,56,0.00,,,0.00,246,Wunderground v.1.15,2013-03-04 21:04:00,
2013-03-04 16:10:00,35.5,19.6,30.07,ESE,123,1.0,1.0,52,0.00,,,0.00,213,Wunderground v.1.15,2013-03-04 21:10:00,
2013-03-04 16:15:00,35.3,20.3,30.07,ESE,117,1.0,6.0,54,0.00,,,0.00,146,Wunderground v.1.15,2013-03-04 21:15:00,
2013-03-04 16:21:00,35.0,20.4,30.07,SE,140,1.0,6.0,55,0.00,,,0.00,134,Wunderground v.1.15,2013-03-04 21:21:00,
2013-03-04 16:27:00,34.7,20.6,30.06,East,95,1.0,6.0,56,0.00,,,0.00,139,Wunderground v.1.15,2013-03-04 21:27:00,
2013-03-04 16:33:00,34.5,20.4,30.07,East,86,1.0,6.0,56,0.00,,,0.00,156,Wunderground v.1.15,2013-03-04 21:33:00,
2013-03-04 16:39:00,34.4,20.3,30.06,East,97,1.0,6.0,56,0.00,,,0.00,181,Wunderground v.1.15,2013-03-04 21:39:00,
2013-03-04 16:45:00,34.5,20.4,30.07,SE,128,1.0,6.0,56,0.00,,,0.00,172,Wunderground v.1.15,2013-03-04 21:45:00,
2013-03-04 16:51:00,34.7,20.6,30.07,SE,128,0.0,6.0,56,0.00,,,0.00,178,Wunderground v.1.15,2013-03-04 21:51:00,
2013-03-04 16:56:00,34.7,20.2,30.07,South,173,1.0,6.0,55,0.00,,,0.00,204,Wunderground v.1.15,2013-03-04 21:56:00,
2013-03-04 17:01:00,34.9,21.2,30.07,East,97,1.0,6.0,57,0.00,,,0.00,207,Wunderground v.1.15,2013-03-04 22:01:00,
2013-03-04 17:06:00,35.1,20.5,30.06,SE,136,0.0,6.0,55,0.00,,,0.00,169,Wunderground v.1.15,2013-03-04 22:06:00,
2013-03-04 17:12:00,35.1,20.5,30.07,ESE,123,0.0,6.0,55,0.00,,,0.00,141,Wunderground v.1.15,2013-03-04 22:12:00,
2013-03-04 17:18:00,34.9,20.8,30.07,ESE,111,0.0,6.0,56,0.00,,,0.00,132,Wunderground v.1.15,2013-03-04 22:18:00,
2013-03-04 17:24:00,34.9,20.4,30.07,WSW,237,0.0,6.0,55,0.00,,,0.00,109,Wunderground v.1.15,2013-03-04 22:24:00,
2013-03-04 17:30:00,34.7,20.2,30.06,ESE,106,0.0,6.0,55,0.00,,,0.00,84,Wunderground v.1.15,2013-03-04 22:30:00,
2013-03-04 17:36:00,34.4,20.3,30.06,East,87,0.0,6.0,56,0.00,,,0.00,69,Wunderground v.1.15,2013-03-04 22:36:00,
2013-03-04 17:41:00,34.2,20.1,30.07,ENE,75,0.0,6.0,56,0.00,,,0.00,62,Wunderground v.1.15,2013-03-04 22:41:00,
2013-03-04 17:47:00,33.9,20.7,30.06,East,87,1.0,6.0,58,0.00,,,0.00,44,Wunderground v.1.15,2013-03-04 22:47:00,
2013-03-04 17:52:00,33.8,20.6,30.06,ENE,71,1.0,6.0,58,0.00,,,0.00,35,Wunderground v.1.15,2013-03-04 22:52:00,
2013-03-04 17:58:00,33.7,20.1,30.06,ESE,103,1.0,6.0,57,0.00,,,0.00,28,Wunderground v.1.15,2013-03-04 22:58:00,
2013-03-04 18:04:00,33.5,20.3,30.06,East,82,0.0,4.0,58,0.00,,,0.00,21,Wunderground v.1.15,2013-03-04 23:04:00,
2013-03-04 18:10:00,33.3,19.7,30.05,East,85,2.0,4.0,57,0.00,,,0.00,18,Wunderground v.1.15,2013-03-04 23:10:00,
2013-03-04 18:16:00,33.1,20.3,30.05,East,96,2.0,4.0,59,0.00,,,0.00,11,Wunderground v.1.15,2013-03-04 23:16:00,
2013-03-04 18:22:00,33.1,19.9,30.05,East,94,1.0,4.0,58,0.00,,,0.00,9,Wunderground v.1.15,2013-03-04 23:22:00,
2013-03-04 18:28:00,33.0,20.2,30.05,ESE,104,0.0,4.0,59,0.00,,,0.00,5,Wunderground v.1.15,2013-03-04 23:28:00,
2013-03-04 18:34:00,32.9,20.1,30.05,ESE,102,1.0,4.0,59,0.00,,,0.00,0,Wunderground v.1.15,2013-03-04 23:34:00,
2013-03-04 18:39:00,32.9,20.5,30.05,East,95,1.0,4.0,60,0.00,,,0.00,0,Wunderground v.1.15,2013-03-04 23:39:00,
2013-03-04 18:44:00,32.8,20.4,30.05,ESE,111,1.0,4.0,60,0.00,,,0.00,0,Wunderground v.1.15,2013-03-04 23:44:00,
2013-03-04 18:49:00,32.8,20.4,30.05,East,88,1.0,5.0,60,0.00,,,0.00,0,Wunderground v.1.15,2013-03-04 23:49:00,
2013-03-04 18:55:00,32.6,20.6,30.05,East,101,2.0,4.0,61,0.00,,,0.00,0,Wunderground v.1.15,2013-03-04 23:55:00,
2013-03-04 19:00:00,32.6,20.6,30.05,East,94,1.0,1.0,61,0.00,,,0.00,0,Wunderground v.1.15,2013-03-05 00:00:00,
2013-03-04 19:07:00,32.5,20.9,30.05,East,95,0.0,5.0,62,0.00,,,0.00,0,Wunderground v.1.15,2013-03-05 00:07:00,
2013-03-04 19:12:00,32.4,21.2,30.05,East,90,1.0,5.0,63,0.00,,,0.00,0,Wunderground v.1.15,2013-03-05 00:12:00,
2013-03-04 19:18:00,32.4,21.2,30.05,East,91,2.0,5.0,63,0.00,,,0.00,0,Wunderground v.1.15,2013-03-05 00:18:00,
2013-03-04 19:24:00,32.3,21.5,30.05,East,83,2.0,5.0,64,0.00,,,0.00,0,Wunderground v.1.15,2013-03-05 00:24:00,
2013-03-04 19:30:00,32.3,21.5,30.05,ESE,106,3.0,3.0,64,0.00,,,0.00,0,Wunderground v.1.15,2013-03-05 00:30:00,
2013-03-04 19:35:00,32.3,21.5,30.05,East,84,3.0,5.0,64,0.00,,,0.00,0,Wunderground v.1.15,2013-03-05 00:35:00,
2013-03-04 19:41:00,32.3,21.1,30.05,ENE,60,2.0,5.0,63,0.00,,,0.00,0,Wunderground v.1.15,2013-03-05 00:41:00,
2013-03-04 19:47:00,32.4,21.2,30.05,ENE,61,2.0,5.0,63,0.00,,,0.00,0,Wunderground v.1.15,2013-03-05 00:47:00,
2013-03-04 19:53:00,32.3,21.1,30.05,East,79,3.0,5.0,63,0.00,,,0.00,0,Wunderground v.1.15,2013-03-05 00:53:00,
2013-03-04 19:59:00,32.4,21.6,30.05,East,80,2.0,5.0,64,0.00,,,0.00,0,Wunderground v.1.15,2013-03-05 00:59:00,
2013-03-04 20:05:00,32.4,21.0,30.05,ENE,71,0.0,-999.0,64,-99.99,,,0.00,,weatherlink.com 1.10,2013-03-05 01:05:00,
2013-03-04 20:10:00,32.4,21.6,30.05,East,88,1.0,7.0,64,0.00,,,0.00,0,Wunderground v.1.15,2013-03-05 01:10:00,
2013-03-04 20:15:00,32.4,21.6,30.05,East,99,2.0,7.0,64,0.00,,,0.00,0,Wunderground v.1.15,2013-03-05 01:15:00,
2013-03-04 20:21:00,32.5,21.0,30.05,East,92,5.0,-999.0,64,-99.99,,,0.00,,weatherlink.com 1.10,2013-03-05 01:21:00,
2013-03-04 20:26:00,32.4,21.6,30.05,East,84,2.0,7.0,64,0.00,,,0.00,0,Wunderground v.1.15,2013-03-05 01:26:00,
2013-03-04 20:32:00,32.4,21.6,30.05,ENE,78,2.0,7.0,64,0.00,,,0.00,0,Wunderground v.1.15,2013-03-05 01:32:00,
2013-03-04 20:38:00,32.3,21.5,30.05,East,96,2.0,7.0,64,0.00,,,0.00,0,Wunderground v.1.15,2013-03-05 01:38:00,
2013-03-04 20:44:00,32.4,21.9,30.05,East,82,2.0,7.0,65,0.00,,,0.00,0,Wunderground v.1.15,2013-03-05 01:44:00,
2013-03-04 20:50:00,32.4,21.9,30.05,East,89,2.0,2.0,65,0.00,,,0.00,0,Wunderground v.1.15,2013-03-05 01:50:00,
2013-03-04 20:56:00,32.4,21.9,30.05,East,89,2.0,7.0,65,0.00,,,0.00,0,Wunderground v.1.15,2013-03-05 01:56:00,
2013-03-04 21:01:00,32.4,21.9,30.06,East,92,2.0,4.0,65,0.00,,,0.00,0,Wunderground v.1.15,2013-03-05 02:01:00,
2013-03-04 21:07:00,32.4,22.3,30.06,East,88,1.0,7.0,66,0.00,,,0.00,0,Wunderground v.1.15,2013-03-05 02:07:00,
2013-03-04 21:12:00,32.5,22.0,30.07,East,88,0.0,7.0,65,0.00,,,0.00,0,Wunderground v.1.15,2013-03-05 02:12:00,
2013-03-04 21:18:00,32.5,22.0,30.07,East,88,0.0,7.0,65,0.00,,,0.00,0,Wunderground v.1.15,2013-03-05 02:18:00,
2013-03-04 21:23:00,32.5,21.7,30.07,East,88,0.0,7.0,64,0.00,,,0.00,0,Wunderground v.1.15,2013-03-05 02:23:00,
2013-03-04 21:28:00,32.5,21.7,30.07,SE,136,0.0,7.0,64,0.00,,,0.00,0,Wunderground v.1.15,2013-03-05 02:28:00,
2013-03-04 21:34:00,32.6,21.8,30.08,SE,135,0.0,7.0,64,0.00,,,0.00,0,Wunderground v.1.15,2013-03-05 02:34:00,
2013-03-04 21:42:00,32.6,22.5,30.08,SE,135,0.0,7.0,66,0.00,,,0.00,0,Wunderground v.1.15,2013-03-05 02:42:00,
2013-03-04 21:48:00,32.6,22.5,30.08,SE,134,0.0,7.0,66,0.00,,,0.00,0,Wunderground v.1.15,2013-03-05 02:48:00,
2013-03-04 21:53:00,32.6,22.1,30.08,SE,135,0.0,7.0,65,0.00,,,0.00,0,Wunderground v.1.15,2013-03-05 02:53:00,
2013-03-04 21:58:00,32.6,22.1,30.08,SE,134,0.0,7.0,65,0.00,,,0.00,0,Wunderground v.1.15,2013-03-05 02:58:00,
2013-03-04 22:04:00,32.5,22.4,30.08,SE,134,0.0,3.0,66,0.00,,,0.00,0,Wunderground v.1.15,2013-03-05 03:04:00,
2013-03-04 22:09:00,32.6,22.5,30.08,SE,134,0.0,3.0,66,0.00,,,0.00,0,Wunderground v.1.15,2013-03-05 03:09:00,
2013-03-04 22:14:00,32.5,22.4,30.09,SE,134,0.0,3.0,66,0.00,,,0.00,0,Wunderground v.1.15,2013-03-05 03:14:00,
2013-03-04 22:20:00,32.5,23.0,30.08,SE,134,0.0,-999.0,67,-99.99,,,0.00,,weatherlink.com 1.10,2013-03-05 03:20:00,
2013-03-04 22:25:00,32.4,22.7,30.08,SE,135,0.0,3.0,67,0.00,,,0.00,0,Wunderground v.1.15,2013-03-05 03:25:00,
2013-03-04 22:31:00,32.4,22.7,30.08,SE,135,0.0,3.0,67,0.00,,,0.00,0,Wunderground v.1.15,2013-03-05 03:31:00,
2013-03-04 22:36:00,32.4,22.7,30.08,SE,135,0.0,3.0,67,0.00,,,0.00,0,Wunderground v.1.15,2013-03-05 03:36:00,
2013-03-04 22:41:00,32.4,23.0,30.08,SE,135,0.0,3.0,68,0.00,,,0.00,0,Wunderground v.1.15,2013-03-05 03:41:00,
2013-03-04 22:46:00,32.4,23.0,30.08,SE,135,0.0,3.0,68,0.00,,,0.00,0,Wunderground v.1.15,2013-03-05 03:46:00,
2013-03-04 22:52:00,32.4,23.0,30.08,SE,135,0.0,3.0,68,0.00,,,0.00,0,Wunderground v.1.15,2013-03-05 03:52:00,
2013-03-04 22:57:00,32.4,23.0,30.08,SE,134,0.0,3.0,68,0.00,,,0.00,0,Wunderground v.1.15,2013-03-05 03:57:00,
2013-03-04 23:02:00,32.5,23.1,30.08,SE,134,0.0,1.0,68,0.00,,,0.00,0,Wunderground v.1.15,2013-03-05 04:02:00,
2013-03-04 23:08:00,32.5,22.8,30.08,SE,134,0.0,1.0,67,0.00,,,0.00,0,Wunderground v.1.15,2013-03-05 04:08:00,
2013-03-04 23:14:00,32.5,23.1,30.08,SE,135,0.0,1.0,68,0.00,,,0.00,0,Wunderground v.1.15,2013-03-05 04:14:00,
2013-03-04 23:19:00,32.5,23.1,30.08,SE,134,0.0,1.0,68,0.00,,,0.00,0,Wunderground v.1.15,2013-03-05 04:19:00,
2013-03-04 23:25:00,32.5,23.8,30.08,SE,135,0.0,1.0,70,0.00,,,0.00,0,Wunderground v.1.15,2013-03-05 04:25:00,
2013-03-04 23:31:00,32.4,23.7,30.08,SE,134,0.0,1.0,70,0.00,,,0.00,0,Wunderground v.1.15,2013-03-05 04:31:00,
2013-03-04 23:37:00,32.4,24.0,30.08,SE,134,0.0,1.0,71,0.00,,,0.00,0,Wunderground v.1.15,2013-03-05 04:37:00,
2013-03-04 23:43:00,32.4,24.0,30.08,SE,134,0.0,1.0,71,0.00,,,0.00,0,Wunderground v.1.15,2013-03-05 04:43:00,
2013-03-04 23:48:00,32.4,23.7,30.08,SE,134,0.0,1.0,70,0.00,,,0.00,0,Wunderground v.1.15,2013-03-05 04:48:00,
2013-03-04 23:53:00,32.4,23.7,30.08,SE,128,0.0,4.0,70,0.00,,,0.00,0,Wunderground v.1.15,2013-03-05 04:53:00,
2013-03-04 23:58:00,32.4,24.0,30.08,ESE,123,0.0,4.0,71,0.00,,,0.00,0,Wunderground v.1.15,2013-03-05 04:58:00,